TimeCDT,TemperatureF,Dew PointF,Humidity,Sea Level PressureIn,VisibilityMPH,Wind Direction,Wind SpeedMPH,Gust SpeedMPH,PrecipitationIn,Events,Conditions,WindDirDegrees,DateUTC
12:15 AM,61.0,51.3,70,29.65,10.0,WSW,10.4,-,N/A,,Clear,250,2013-05-21 05:15:00
12:35 AM,60.8,51.8,72,29.64,10.0,West,13.8,18.4,N/A,,Clear,260,2013-05-21 05:35:00
12:55 AM,59.7,52.5,77,29.65,10.0,WSW,13.8,-,N/A,,Clear,250,2013-05-21 05:55:00
1:15 AM,59.4,53.4,81,29.65,10.0,WSW,13.8,-,N/A,,Scattered Clouds,250,2013-05-21 06:15:00
1:35 AM,59.2,54.7,85,29.65,10.0,West,13.8,-,N/A,,Scattered Clouds,260,2013-05-21 06:35:00
1:55 AM,59.4,55.4,87,29.65,10.0,West,12.7,-,N/A,,Scattered Clouds,270,2013-05-21 06:55:00
2:15 AM,59.4,55.4,87,29.65,10.0,West,13.8,-,N/A,,Clear,270,2013-05-21 07:15:00
2:35 AM,59.0,55.4,88,29.65,10.0,West,12.7,-,N/A,,Clear,260,2013-05-21 07:35:00
2:55 AM,59.9,55.9,87,29.66,10.0,West,12.7,20.7,N/A,,Mostly Cloudy,280,2013-05-21 07:55:00
3:15 AM,59.5,56.1,88,29.66,7.0,West,12.7,-,N/A,,Mostly Cloudy,260,2013-05-21 08:15:00
3:35 AM,59.0,55.0,87,29.67,10.0,West,11.5,-,N/A,,Mostly Cloudy,270,2013-05-21 08:35:00
3:55 AM,58.1,54.0,86,29.66,10.0,West,10.4,-,N/A,,Scattered Clouds,260,2013-05-21 08:55:00
4:15 AM,57.6,53.2,85,29.66,10.0,West,10.4,-,N/A,,Clear,270,2013-05-21 09:15:00
4:35 AM,56.7,52.9,87,29.67,10.0,West,9.2,-,N/A,,Clear,260,2013-05-21 09:35:00
4:55 AM,56.3,52.5,87,29.67,10.0,WSW,8.1,-,N/A,,Clear,250,2013-05-21 09:55:00
5:15 AM,55.4,52.5,90,29.68,10.0,WSW,8.1,-,N/A,,Clear,250,2013-05-21 10:15:00
5:35 AM,55.4,52.9,91,29.69,10.0,WSW,9.2,-,N/A,,Clear,250,2013-05-21 10:35:00
5:55 AM,55.2,52.5,91,29.69,10.0,WSW,9.2,-,N/A,,Clear,250,2013-05-21 10:55:00
6:15 AM,55.0,51.8,89,29.69,10.0,West,6.9,-,N/A,,Clear,260,2013-05-21 11:15:00
6:35 AM,54.5,52.5,93,29.70,10.0,WSW,6.9,-,N/A,,Clear,240,2013-05-21 11:35:00
6:55 AM,55.6,52.2,88,29.71,10.0,WSW,9.2,-,N/A,,Clear,240,2013-05-21 11:55:00
7:15 AM,56.5,52.0,85,29.72,10.0,WSW,11.5,-,N/A,,Clear,240,2013-05-21 12:15:00
7:35 AM,57.6,52.0,82,29.73,10.0,WSW,13.8,-,N/A,,Clear,240,2013-05-21 12:35:00
7:55 AM,58.3,50.4,75,29.73,10.0,West,15.0,24.2,N/A,,Clear,270,2013-05-21 12:55:00
8:15 AM,58.6,48.4,69,29.72,10.0,West,18.4,-,N/A,,Clear,270,2013-05-21 13:15:00
8:35 AM,59.4,48.4,67,29.72,10.0,West,17.3,24.2,N/A,,Scattered Clouds,280,2013-05-21 13:35:00
8:55 AM,60.1,50.0,69,29.72,10.0,West,13.8,-,N/A,,Scattered Clouds,270,2013-05-21 13:55:00
9:15 AM,60.1,48.7,66,29.72,10.0,West,15.0,21.9,N/A,,Scattered Clouds,270,2013-05-21 14:15:00
9:35 AM,61.9,49.5,64,29.72,10.0,West,13.8,18.4,N/A,,Scattered Clouds,270,2013-05-21 14:35:00
9:55 AM,62.4,48.9,61,29.72,10.0,West,13.8,18.4,N/A,,Scattered Clouds,270,2013-05-21 14:55:00
10:15 AM,63.5,49.1,59,29.72,10.0,West,13.8,19.6,N/A,,Scattered Clouds,270,2013-05-21 15:15:00
10:35 AM,63.0,48.6,59,29.71,10.0,West,11.5,17.3,N/A,,Scattered Clouds,270,2013-05-21 15:35:00
10:55 AM,63.9,48.6,57,29.72,10.0,West,16.1,-,N/A,,Scattered Clouds,280,2013-05-21 15:55:00
11:15 AM,64.9,48.6,55,29.72,10.0,West,13.8,23.0,N/A,,Mostly Cloudy,280,2013-05-21 16:15:00
11:35 AM,64.6,49.3,58,29.72,10.0,West,13.8,19.6,N/A,,Mostly Cloudy,270,2013-05-21 16:35:00
11:55 AM,64.9,48.7,56,29.72,10.0,WSW,15.0,19.6,N/A,,Mostly Cloudy,240,2013-05-21 16:55:00
12:15 PM,63.9,46.9,54,29.73,10.0,West,16.1,23.0,N/A,,Mostly Cloudy,260,2013-05-21 17:15:00
12:35 PM,63.7,47.7,56,29.72,10.0,WSW,17.3,20.7,N/A,,Overcast,250,2013-05-21 17:35:00
12:55 PM,64.2,47.7,55,29.72,10.0,WSW,17.3,-,N/A,,Overcast,250,2013-05-21 17:55:00
1:15 PM,65.3,47.5,52,29.72,10.0,West,17.3,24.2,N/A,,Overcast,260,2013-05-21 18:15:00
1:35 PM,65.3,48.4,54,29.73,10.0,West,21.9,32.2,N/A,,Overcast,270,2013-05-21 18:35:00
1:55 PM,64.9,46.2,51,29.73,10.0,West,21.9,29.9,N/A,,Mostly Cloudy,260,2013-05-21 18:55:00
2:15 PM,65.8,46.6,50,29.74,10.0,West,20.7,26.5,N/A,,Overcast,260,2013-05-21 19:15:00
2:35 PM,65.3,46.4,50,29.72,10.0,West,19.6,23.0,N/A,,Overcast,260,2013-05-21 19:35:00
2:55 PM,65.1,46.0,50,29.73,10.0,West,18.4,24.2,N/A,,Overcast,260,2013-05-21 19:55:00
3:15 PM,63.7,45.7,52,29.73,10.0,West,18.4,24.2,N/A,,Overcast,260,2013-05-21 20:15:00
3:35 PM,63.5,46.0,53,29.73,10.0,WSW,16.1,21.9,N/A,,Overcast,250,2013-05-21 20:35:00
3:55 PM,63.9,45.7,52,29.73,10.0,West,18.4,24.2,N/A,,Overcast,260,2013-05-21 20:55:00
4:15 PM,65.3,46.0,50,29.72,10.0,West,17.3,-,N/A,,Overcast,260,2013-05-21 21:15:00
4:35 PM,65.1,45.7,49,29.71,10.0,West,19.6,26.5,N/A,,Overcast,260,2013-05-21 21:35:00
4:55 PM,65.1,46.4,51,29.70,10.0,West,20.7,25.3,N/A,,Overcast,260,2013-05-21 21:55:00
5:15 PM,65.8,47.5,52,29.71,10.0,WSW,16.1,20.7,N/A,,Overcast,250,2013-05-21 22:15:00
5:35 PM,66.7,47.1,49,29.71,10.0,West,12.7,-,N/A,,Overcast,270,2013-05-21 22:35:00
5:55 PM,66.2,47.3,51,29.70,10.0,West,17.3,21.9,N/A,,Overcast,270,2013-05-21 22:55:00
6:15 PM,65.8,46.9,50,29.69,10.0,WNW,18.4,23.0,N/A,,Scattered Clouds,290,2013-05-21 23:15:00
6:35 PM,64.9,47.5,53,29.69,10.0,WNW,19.6,-,N/A,,Clear,290,2013-05-21 23:35:00
6:55 PM,63.9,47.5,55,29.70,10.0,West,17.3,-,N/A,,Clear,280,2013-05-21 23:55:00
7:15 PM,63.5,47.7,56,29.70,10.0,WNW,15.0,20.7,N/A,,Clear,290,2013-05-22 00:15:00
7:35 PM,62.4,48.4,60,29.69,10.0,WNW,13.8,17.3,N/A,,Clear,290,2013-05-22 00:35:00
7:55 PM,62.1,48.2,60,29.71,10.0,West,11.5,18.4,N/A,,Mostly Cloudy,280,2013-05-22 00:55:00
8:15 PM,61.7,48.7,62,29.72,10.0,WNW,11.5,-,N/A,,Overcast,290,2013-05-22 01:15:00
8:35 PM,61.5,49.1,64,29.72,10.0,WNW,10.4,-,N/A,,Overcast,290,2013-05-22 01:35:00
8:55 PM,61.0,49.5,66,29.72,10.0,WNW,12.7,-,N/A,,Overcast,300,2013-05-22 01:55:00
9:15 PM,60.8,49.6,67,29.72,10.0,WNW,9.2,-,N/A,,Overcast,300,2013-05-22 02:15:00
9:35 PM,60.4,49.5,67,29.72,10.0,WNW,11.5,-,N/A,,Overcast,300,2013-05-22 02:35:00
9:55 PM,60.3,49.5,68,29.72,10.0,NW,11.5,16.1,N/A,,Overcast,310,2013-05-22 02:55:00
10:15 PM,59.7,49.6,69,29.73,10.0,NW,10.4,16.1,N/A,,Overcast,320,2013-05-22 03:15:00
10:35 PM,59.0,49.3,70,29.74,10.0,NW,11.5,18.4,N/A,,Overcast,320,2013-05-22 03:35:00
10:55 PM,57.7,50.0,75,29.74,10.0,NW,10.4,-,N/A,,Overcast,310,2013-05-22 03:55:00
11:15 PM,57.2,49.8,76,29.74,10.0,NW,11.5,-,N/A,,Overcast,320,2013-05-22 04:15:00
11:35 PM,56.1,49.8,79,29.75,10.0,NW,8.1,-,N/A,,Overcast,310,2013-05-22 04:35:00
11:55 PM,55.4,50.0,82,29.75,10.0,WNW,6.9,-,N/A,,Overcast,300,2013-05-22 04:55:00